C/2020 T4 ( PanSTARRS )

Japanese version
Home page
Updated on November 3, 2020

---------------------------------------------------------------------

* Profile

Discovery Date October 15, 2020
Magnitude 21.0 mag
Discoverer Pan-STARRS 1 telescope (Haleakala)

* Pictures

* Orbital Elements

Epoch 2021 July 5.0 TT = JDT 2459400.5
T 2021 July 5.26310 TT                                  Rudenko
q   2.1918165            (2000.0)            P               Q
z  +0.0000147      Peri.   79.60809     +0.03250226     -0.63908012
 +/-0.0003023      Node    50.62005     -0.19934298     -0.75755672
e   0.9999677      Incl.   83.81271     +0.97939062     -0.13298276
From 71 observations 2020 Sept. 26-Oct. 27, mean residual 0".5.

* Magnitudes Graph

        m1 = 12.0 + 5 log d + 10.0 log r

---------------------------------------------------------------------

The orbital elements are published on M.P.E.C. 2020-U270.
The magnitudes graphs are made with Comet for Windows.

---------------------------------------------------------------------

Copyright(C) Seiichi Yoshida (comet@aerith.net). All rights reserved.